| time (UTC) | temp F | wind direction | speed knots | gust knots | rain 1hr in | rain 24hr in | rain mn in | humidity % | barometer mb |
| 20260505124846 | 55 | 221 | 4.3 | 5.2 | 0.00 | 0.00 | 0.00 | 83 | 1014.3 |
| 20260505124343 | 55 | 160 | 0.9 | 0.9 | 0.00 | 0.00 | 0.00 | 83 | 1014.4 |
| 20260505123839 | 55 | 143 | 3.5 | 3.5 | 0.00 | 0.00 | 0.00 | 83 | 1014.4 |
| 20260505123336 | 55 | 107 | 1.7 | 1.7 | 0.00 | 0.00 | 0.00 | 83 | 1014.4 |
| 20260505122832 | 55 | 173 | 2.6 | 3.5 | 0.00 | 0.00 | 0.00 | 83 | 1014.3 |
| 20260505122329 | 55 | 186 | 2.6 | 3.5 | 0.00 | 0.00 | 0.00 | 84 | 1014.4 |
| 20260505121826 | 55 | 174 | 0.9 | 0.9 | 0.00 | 0.00 | 0.00 | 84 | 1014.2 |
| 20260505121323 | 55 | 169 | 1.7 | 1.7 | 0.00 | 0.00 | 0.00 | 84 | 1014.2 |
| 20260505120819 | 55 | 153 | 0.9 | 1.7 | 0.00 | 0.00 | 0.00 | 84 | 1014.1 |
| 20260505120315 | 55 | 205 | 1.7 | 1.7 | 0.00 | 0.00 | 0.00 | 84 | 1014.1 |
| 20260505115813 | 55 | 168 | 0.9 | 1.7 | 0.00 | 0.00 | 0.00 | 84 | 1014.1 |
| 20260505115311 | 55 | 115 | 0.0 | 0.9 | 0.00 | 0.00 | 0.00 | 84 | 1014.2 |
| 20260505114809 | 55 | 204 | 3.5 | 3.5 | 0.00 | 0.00 | 0.00 | 84 | 1014.0 |
| 20260505114305 | 55 | 163 | 1.7 | 2.6 | 0.00 | 0.00 | 0.00 | 84 | 1014.2 |
| 20260505113802 | 55 | 181 | 0.9 | 1.7 | 0.00 | 0.00 | 0.00 | 84 | 1014.1 |
| 20260505113258 | 55 | 200 | 1.7 | 1.7 | 0.00 | 0.00 | 0.00 | 84 | 1014.0 |
| 20260505112754 | 55 | 279 | 0.0 | 0.0 | 0.00 | 0.00 | 0.00 | 84 | 1014.2 |
| 20260505112253 | 55 | 217 | 1.7 | 2.6 | 0.00 | 0.00 | 0.00 | 84 | 1014.1 |
| 20260505111752 | 55 | 234 | 3.5 | 3.5 | 0.00 | 0.00 | 0.00 | 84 | 1013.9 |
| 20260505111248 | 55 | 234 | 1.7 | 2.6 | 0.00 | 0.00 | 0.00 | 84 | 1014.1 |
| 20260505110744 | 55 | 195 | 1.7 | 1.7 | 0.00 | 0.00 | 0.00 | 84 | 1014.0 |
| 20260505110242 | 55 | 214 | 1.7 | 1.7 | 0.00 | 0.00 | 0.00 | 84 | 1013.9 |
| 20260505102217 | 55 | 195 | 1.7 | 2.6 | 0.00 | 0.00 | 0.00 | 84 | 1013.7 |
| 20260505101716 | 55 | 211 | 2.6 | 3.5 | 0.00 | 0.00 | 0.00 | 84 | 1013.8 |
| 20260505101212 | 55 | 174 | 2.6 | 2.6 | 0.00 | 0.00 | 0.00 | 84 | 1013.7 |
| 20260505100708 | 55 | 244 | 1.7 | 2.6 | 0.00 | 0.00 | 0.00 | 84 | 1013.8 |
| 20260505100205 | 55 | 169 | 3.5 | 5.2 | 0.00 | 0.00 | 0.00 | 84 | 1013.7 |
| 20260505095700 | 55 | 161 | 0.9 | 0.9 | 0.00 | 0.00 | 0.00 | 85 | 1013.7 |
| 20260505095159 | 55 | 204 | 0.9 | 0.9 | 0.00 | 0.00 | 0.00 | 85 | 1013.5 |
| 20260505094654 | 55 | 209 | 0.0 | 0.9 | 0.00 | 0.00 | 0.00 | 84 | 1013.4 |
| 20260505094151 | 55 | 196 | 1.7 | 1.7 | 0.00 | 0.00 | 0.00 | 85 | 1013.4 |
| 20260505093647 | 55 | 172 | 3.5 | 3.5 | 0.00 | 0.00 | 0.00 | 85 | 1013.5 |
| 20260505093145 | 55 | 179 | 3.5 | 3.5 | 0.00 | 0.00 | 0.00 | 85 | 1013.4 |
| 20260505092641 | 55 | 187 | 2.6 | 2.6 | 0.00 | 0.00 | 0.00 | 85 | 1013.4 |
| 20260505092140 | 55 | 218 | 1.7 | 1.7 | 0.00 | 0.00 | 0.00 | 85 | 1013.5 |
| 20260505091637 | 55 | 232 | 1.7 | 1.7 | 0.00 | 0.00 | 0.00 | 85 | 1013.3 |
| 20260505091135 | 55 | 113 | 1.7 | 1.7 | 0.00 | 0.00 | 0.00 | 85 | 1013.4 |
| 20260505090632 | 55 | 187 | 2.6 | 2.6 | 0.00 | 0.00 | 0.00 | 84 | 1013.4 |
| 20260505090131 | 55 | 136 | 1.7 | 1.7 | 0.00 | 0.00 | 0.00 | 84 | 1013.3 |
| 20260505085627 | 55 | 153 | 0.9 | 1.7 | 0.00 | 0.00 | 0.00 | 85 | 1013.2 |
| 20260505085126 | 55 | 211 | 1.7 | 1.7 | 0.00 | 0.00 | 0.00 | 85 | 1013.2 |
| 20260505084623 | 55 | 229 | 2.6 | 2.6 | 0.00 | 0.00 | 0.00 | 85 | 1013.2 |
| 20260505084121 | 55 | 162 | 0.9 | 0.9 | 0.00 | 0.00 | 0.00 | 85 | 1013.2 |
| 20260505083619 | 55 | 197 | 2.6 | 2.6 | 0.00 | 0.00 | 0.00 | 85 | 1013.1 |
| 20260505083115 | 55 | 223 | 1.7 | 1.7 | 0.00 | 0.00 | 0.00 | 85 | 1013.4 |
| 20260505082611 | 55 | 117 | 0.0 | 0.9 | 0.00 | 0.00 | 0.00 | 86 | 1013.4 |
| 20260505082108 | 55 | 198 | 0.9 | 0.9 | 0.00 | 0.00 | 0.00 | 85 | 1013.1 |
| 20260505081604 | 55 | 146 | 0.0 | 0.9 | 0.00 | 0.00 | 0.00 | 86 | 1013.3 |
| 20260505081102 | 54 | 118 | 0.9 | 0.9 | 0.00 | 0.00 | 0.00 | 86 | 1013.2 |
| 20260505080557 | 54 | 228 | 1.7 | 2.6 | 0.00 | 0.00 | 0.00 | 86 | 1013.3 |
| 20260505080054 | 54 | 211 | 0.9 | 0.9 | 0.00 | 0.00 | 0.00 | 86 | 1013.3 |
| 20260505075550 | 54 | 184 | 1.7 | 1.7 | 0.00 | 0.00 | 0.00 | 86 | 1013.3 |
| 20260505075047 | 54 | 59 | 2.6 | 3.5 | 0.00 | 0.00 | 0.00 | 86 | 1013.1 |
| 20260505074544 | 54 | 212 | 2.6 | 2.6 | 0.00 | 0.00 | 0.00 | 86 | 1013.0 |
| 20260505074041 | 54 | 210 | 1.7 | 1.7 | 0.00 | 0.00 | 0.00 | 86 | 1012.9 |
| 20260505073538 | 54 | 175 | 1.7 | 1.7 | 0.00 | 0.00 | 0.00 | 86 | 1012.7 |
| 20260505073037 | 54 | 212 | 1.7 | 3.5 | 0.00 | 0.00 | 0.00 | 86 | 1012.8 |
| 20260505072532 | 54 | 92 | 1.7 | 2.6 | 0.00 | 0.00 | 0.00 | 86 | 1012.7 |
| 20260505072029 | 55 | 114 | 0.9 | 1.7 | 0.00 | 0.00 | 0.00 | 86 | 1012.7 |
| 20260505071524 | 55 | 209 | 2.6 | 2.6 | 0.00 | 0.00 | 0.00 | 86 | 1012.6 |
| 20260505071023 | 55 | 204 | 1.7 | 1.7 | 0.00 | 0.00 | 0.00 | 86 | 1012.8 |
| 20260505070520 | 55 | 184 | 0.0 | 0.0 | 0.00 | 0.00 | 0.00 | 86 | 1012.8 |
| 20260505070016 | 55 | 215 | 1.7 | 2.6 | 0.00 | 0.00 | 0.00 | 86 | 1012.4 |
| 20260505065512 | 55 | 206 | 1.7 | 1.7 | 0.00 | 0.00 | 0.00 | 86 | 1012.7 |
| 20260505065009 | 55 | 213 | 2.6 | 2.6 | 0.00 | 0.00 | 0.00 | 85 | 1012.4 |
| 20260505064505 | 55 | 214 | 1.7 | 2.6 | 0.00 | 0.00 | 0.00 | 85 | 1012.7 |
| 20260505064004 | 55 | 145 | 0.9 | 1.7 | 0.00 | 0.00 | 0.00 | 85 | 1012.5 |
| 20260505063500 | 55 | 179 | 0.0 | 0.0 | 0.00 | 0.00 | 0.00 | 85 | 1012.5 |
| 20260505062956 | 55 | 149 | 0.9 | 0.9 | 0.00 | 0.00 | 0.00 | 85 | 1012.2 |
| 20260505062453 | 55 | 69 | 0.0 | 0.9 | 0.00 | 0.00 | 0.00 | 85 | 1012.4 |
| 20260505061950 | 55 | 177 | 1.7 | 1.7 | 0.00 | 0.00 | 0.00 | 85 | 1012.1 |
| 20260505061449 | 55 | 235 | 0.9 | 1.7 | 0.00 | 0.00 | 0.00 | 85 | 1012.0 |
| 20260505060946 | 55 | 212 | 1.7 | 2.6 | 0.00 | 0.00 | 0.00 | 84 | 1012.0 |
| 20260505060443 | 55 | 165 | 2.6 | 2.6 | 0.00 | 0.00 | 0.00 | 84 | 1012.0 |
| 20260505055939 | 55 | 182 | 1.7 | 1.7 | 0.00 | 0.00 | 0.00 | 84 | 1012.0 |
| 20260505055435 | 55 | 54 | 2.6 | 2.6 | 0.00 | 0.00 | 0.00 | 84 | 1011.9 |
| 20260505054932 | 55 | 155 | 1.7 | 2.6 | 0.00 | 0.00 | 0.00 | 84 | 1011.8 |
| 20260505054429 | 56 | 205 | 0.0 | 0.9 | 0.00 | 0.00 | 0.00 | 83 | 1011.8 |
| 20260505053927 | 56 | 69 | 0.9 | 0.9 | 0.00 | 0.00 | 0.00 | 83 | 1011.6 |
| 20260505053424 | 56 | 159 | 1.7 | 1.7 | 0.00 | 0.00 | 0.00 | 83 | 1012.0 |
| 20260505052921 | 56 | 113 | 1.7 | 1.7 | 0.00 | 0.00 | 0.00 | 83 | 1011.9 |
| 20260505052418 | 56 | 12 | 0.0 | 0.0 | 0.00 | 0.00 | 0.00 | 82 | 1011.9 |
| 20260505051915 | 56 | 174 | 0.0 | 0.9 | 0.00 | 0.00 | 0.00 | 82 | 1011.9 |
| 20260505051412 | 56 | 208 | 2.6 | 3.5 | 0.00 | 0.00 | 0.00 | 82 | 1011.9 |
| 20260505050910 | 56 | 185 | 1.7 | 1.7 | 0.00 | 0.00 | 0.00 | 82 | 1011.7 |
| 20260505050408 | 56 | 120 | 0.0 | 0.0 | 0.00 | 0.00 | 0.00 | 81 | 1011.7 |
| 20260505041336 | 58 | 200 | 1.7 | 2.6 | 0.00 | 0.00 | 0.00 | 78 | 1011.2 |
| 20260505040833 | 58 | 224 | 3.5 | 6.1 | 0.00 | 0.00 | 0.00 | 77 | 1011.1 |
| 20260505040330 | 59 | 212 | 5.2 | 7.8 | 0.00 | 0.00 | 0.00 | 77 | 1011.3 |
| 20260505035827 | 59 | 207 | 2.6 | 3.5 | 0.00 | 0.00 | 0.00 | 76 | 1011.2 |
| 20260505035322 | 59 | 241 | 3.5 | 5.2 | 0.00 | 0.00 | 0.00 | 75 | 1011.1 |
| 20260505034820 | 60 | 211 | 5.2 | 7.8 | 0.00 | 0.00 | 0.00 | 74 | 1011.0 |
| 20260505034316 | 60 | 256 | 0.9 | 1.7 | 0.00 | 0.00 | 0.00 | 73 | 1010.8 |
| 20260505033814 | 61 | 160 | 3.5 | 5.2 | 0.00 | 0.00 | 0.00 | 72 | 1010.8 |
| 20260505033311 | 61 | 217 | 2.6 | 2.6 | 0.00 | 0.00 | 0.00 | 71 | 1010.8 |
| 20260505032809 | 62 | 211 | 1.7 | 2.6 | 0.00 | 0.00 | 0.00 | 70 | 1010.6 |
| 20260505032305 | 62 | 12 | 1.7 | 1.7 | 0.00 | 0.00 | 0.00 | 70 | 1010.6 |
| 20260505031802 | 63 | 206 | 1.7 | 2.6 | 0.00 | 0.00 | 0.00 | 68 | 1010.6 |
| 20260505031258 | 63 | 116 | 2.6 | 3.5 | 0.00 | 0.00 | 0.00 | 68 | 1010.4 |
| 20260505030756 | 64 | 195 | 0.9 | 0.9 | 0.00 | 0.00 | 0.00 | 67 | 1010.3 |
| 20260505030252 | 64 | 252 | 2.6 | 3.5 | 0.00 | 0.00 | 0.00 | 65 | 1010.4 |
| 20260505025747 | 65 | 173 | 2.6 | 2.6 | 0.00 | 0.00 | 0.00 | 65 | 1010.3 |
| 20260505025245 | 65 | 20 | 1.7 | 2.6 | 0.00 | 0.00 | 0.00 | 64 | 1010.1 |
| 20260505024743 | 65 | 211 | 2.6 | 3.5 | 0.00 | 0.00 | 0.00 | 63 | 1009.9 |
| 20260505024240 | 66 | 210 | 5.2 | 7.8 | 0.00 | 0.00 | 0.00 | 63 | 1009.9 |
| 20260505023738 | 66 | 202 | 4.3 | 5.2 | 0.00 | 0.00 | 0.00 | 62 | 1010.0 |
| 20260505023235 | 67 | 67 | 0.9 | 1.7 | 0.00 | 0.00 | 0.00 | 62 | 1009.9 |
| 20260505022732 | 67 | 46 | 0.9 | 1.7 | 0.00 | 0.00 | 0.00 | 61 | 1010.0 |
| 20260505022229 | 68 | 211 | 3.5 | 7.0 | 0.00 | 0.00 | 0.00 | 61 | 1009.9 |
| 20260505021726 | 68 | 230 | 5.2 | 7.0 | 0.00 | 0.00 | 0.00 | 60 | 1009.9 |
| 20260505021223 | 68 | 201 | 4.3 | 6.1 | 0.00 | 0.00 | 0.00 | 60 | 1009.9 |
| 20260505020718 | 68 | 169 | 0.0 | 0.9 | 0.00 | 0.00 | 0.00 | 60 | 1009.8 |
| 20260505020214 | 69 | 237 | 4.3 | 5.2 | 0.00 | 0.00 | 0.00 | 59 | 1009.8 |
| 20260505015712 | 69 | 160 | 1.7 | 2.6 | 0.00 | 0.00 | 0.00 | 58 | 1009.8 |
| 20260505015208 | 69 | 78 | 1.7 | 1.7 | 0.00 | 0.00 | 0.00 | 58 | 1009.9 |
| 20260505014705 | 70 | 285 | 1.7 | 2.6 | 0.00 | 0.00 | 0.00 | 57 | 1009.8 |
| 20260505014203 | 71 | 291 | 1.7 | 1.7 | 0.00 | 0.00 | 0.00 | 55 | 1009.7 |
| 20260505013700 | 72 | 168 | 0.9 | 0.9 | 0.00 | 0.00 | 0.00 | 54 | 1009.8 |
| 20260505013157 | 73 | 260 | 2.6 | 3.5 | 0.00 | 0.00 | 0.00 | 53 | 1009.9 |
| 20260505012655 | 74 | 278 | 1.7 | 2.6 | 0.00 | 0.00 | 0.00 | 52 | 1009.8 |
| 20260505012152 | 75 | 262 | 1.7 | 2.6 | 0.00 | 0.00 | 0.00 | 51 | 1009.8 |
| 20260505011652 | 75 | 138 | 0.0 | 0.9 | 0.00 | 0.00 | 0.00 | 51 | 1009.7 |
| 20260505011150 | 75 | 278 | 0.0 | 0.9 | 0.00 | 0.00 | 0.00 | 52 | 1009.9 |
| 20260505010645 | 76 | 227 | 0.9 | 1.7 | 0.00 | 0.00 | 0.00 | 51 | 1009.6 |
| 20260505010142 | 76 | 226 | 4.3 | 5.2 | 0.00 | 0.00 | 0.00 | 49 | 1009.7 |
| 20260505005638 | 76 | 212 | 0.9 | 1.7 | 0.00 | 0.00 | 0.00 | 50 | 1009.6 |
| 20260505005135 | 75 | 197 | 0.9 | 0.9 | 0.00 | 0.00 | 0.00 | 51 | 1009.9 |
| 20260505004632 | 76 | 253 | 2.6 | 3.5 | 0.00 | 0.00 | 0.00 | 50 | 1009.9 |
| 20260505004129 | 76 | 284 | 1.7 | 2.6 | 0.00 | 0.00 | 0.00 | 50 | 1009.9 |
| 20260505003626 | 76 | 255 | 3.5 | 5.2 | 0.00 | 0.00 | 0.00 | 49 | 1009.9 |
| 20260505003124 | 77 | 229 | 4.3 | 7.0 | 0.00 | 0.00 | 0.00 | 49 | 1009.8 |
| 20260505002619 | 77 | 182 | 1.7 | 1.7 | 0.00 | 0.00 | 0.00 | 49 | 1009.8 |
| 20260505002118 | 77 | 274 | 5.2 | 8.7 | 0.00 | 0.00 | 0.00 | 47 | 1009.6 |
| 20260505001614 | 77 | 73 | 4.3 | 5.2 | 0.00 | 0.00 | 0.00 | 48 | 1009.7 |
| 20260505001112 | 77 | 281 | 0.9 | 0.9 | 0.00 | 0.00 | 0.00 | 49 | 1009.6 |
| 20260505000609 | 78 | 234 | 5.2 | 7.8 | 0.00 | 0.00 | 0.00 | 48 | 1009.6 |
| 20260505000107 | 78 | 281 | 5.2 | 7.0 | 0.00 | 0.00 | 0.00 | 48 | 1009.5 |
| 20260504235603 | 79 | 257 | 4.3 | 6.1 | 0.00 | 0.00 | 0.00 | 48 | 1009.6 |
| 20260504235100 | 78 | 166 | 0.9 | 1.7 | 0.00 | 0.00 | 0.00 | 49 | 1009.6 |
| 20260504234557 | 78 | 199 | 3.5 | 3.5 | 0.00 | 0.00 | 0.00 | 49 | 1009.5 |
| 20260504234054 | 78 | 194 | 1.7 | 1.7 | 0.00 | 0.00 | 0.00 | 49 | 1009.6 |
| 20260504233549 | 77 | 227 | 1.7 | 3.5 | 0.00 | 0.00 | 0.00 | 50 | 1009.7 |
| 20260504233046 | 79 | 237 | 7.8 | 8.7 | 0.00 | 0.00 | 0.00 | 48 | 1009.6 |
| 20260504232543 | 78 | 191 | 1.7 | 2.6 | 0.00 | 0.00 | 0.00 | 48 | 1009.7 |
| 20260504232041 | 78 | 233 | 3.5 | 3.5 | 0.00 | 0.00 | 0.00 | 48 | 1009.6 |
| 20260504231537 | 78 | 155 | 2.6 | 3.5 | 0.00 | 0.00 | 0.00 | 48 | 1010.0 |
| 20260504231033 | 78 | 207 | 0.9 | 0.9 | 0.00 | 0.00 | 0.00 | 50 | 1009.8 |
| 20260504230530 | 78 | 227 | 1.7 | 2.6 | 0.00 | 0.00 | 0.00 | 48 | 1010.0 |
| 20260504230029 | 79 | 186 | 0.9 | 1.7 | 0.00 | 0.00 | 0.00 | 48 | 1009.9 |
| 20260504225525 | 78 | 99 | 0.9 | 0.9 | 0.00 | 0.00 | 0.00 | 49 | 1010.0 |
| 20260504225023 | 78 | 214 | 2.6 | 2.6 | 0.00 | 0.00 | 0.00 | 49 | 1009.9 |
| 20260504224519 | 78 | 8 | 3.5 | 3.5 | 0.00 | 0.00 | 0.00 | 50 | 1010.0 |
| 20260504224016 | 79 | 338 | 2.6 | 6.1 | 0.00 | 0.00 | 0.00 | 50 | 1010.0 |
| 20260504223513 | 78 | 192 | 2.6 | 2.6 | 0.00 | 0.00 | 0.00 | 50 | 1010.1 |
| 20260504223009 | 77 | 130 | 1.7 | 2.6 | 0.00 | 0.00 | 0.00 | 53 | 1010.0 |
| 20260504222506 | 77 | 213 | 1.7 | 1.7 | 0.00 | 0.00 | 0.00 | 53 | 1010.1 |
| 20260504222003 | 78 | 215 | 3.5 | 5.2 | 0.00 | 0.00 | 0.00 | 50 | 1010.4 |
| 20260504221500 | 78 | 140 | 0.0 | 0.0 | 0.00 | 0.00 | 0.00 | 52 | 1010.4 |
| 20260504220957 | 77 | 281 | 0.9 | 1.7 | 0.00 | 0.00 | 0.00 | 52 | 1010.2 |
| 20260504220454 | 77 | 98 | 1.7 | 1.7 | 0.00 | 0.00 | 0.00 | 50 | 1010.6 |
| 20260504215950 | 77 | 180 | 0.9 | 0.9 | 0.00 | 0.00 | 0.00 | 52 | 1010.6 |
| 20260504215447 | 77 | 329 | 0.9 | 1.7 | 0.00 | 0.00 | 0.00 | 52 | 1010.4 |
| 20260504214944 | 77 | 65 | 3.5 | 6.1 | 0.00 | 0.00 | 0.00 | 51 | 1010.4 |
| 20260504214440 | 77 | 137 | 2.6 | 2.6 | 0.00 | 0.00 | 0.00 | 50 | 1010.5 |
| 20260504213937 | 77 | 48 | 1.7 | 1.7 | 0.00 | 0.00 | 0.00 | 52 | 1010.4 |
| 20260504213433 | 77 | 190 | 5.2 | 6.1 | 0.00 | 0.00 | 0.00 | 51 | 1010.4 |
| 20260504212931 | 77 | 190 | 7.8 | 8.7 | 0.00 | 0.00 | 0.00 | 51 | 1010.7 |
| 20260504212426 | 76 | 198 | 2.6 | 2.6 | 0.00 | 0.00 | 0.00 | 52 | 1010.8 |
| 20260504211924 | 77 | 228 | 8.7 | 9.6 | 0.00 | 0.00 | 0.00 | 49 | 1010.7 |
| 20260504211420 | 77 | 203 | 1.7 | 2.6 | 0.00 | 0.00 | 0.00 | 51 | 1010.7 |
| 20260504210918 | 76 | 133 | 2.6 | 3.5 | 0.00 | 0.00 | 0.00 | 51 | 1010.6 |
| 20260504210415 | 77 | 182 | 2.6 | 3.5 | 0.00 | 0.00 | 0.00 | 50 | 1010.6 |
| 20260504205912 | 77 | 128 | 0.9 | 1.7 | 0.00 | 0.00 | 0.00 | 52 | 1010.5 |
| 20260504205409 | 76 | 168 | 1.7 | 1.7 | 0.00 | 0.00 | 0.00 | 52 | 1010.6 |
| 20260504204907 | 75 | 181 | 3.5 | 3.5 | 0.00 | 0.00 | 0.00 | 52 | 1010.7 |
| 20260504204405 | 74 | 149 | 3.5 | 3.5 | 0.00 | 0.00 | 0.00 | 52 | 1010.6 |
| 20260504203905 | 74 | 95 | 0.9 | 1.7 | 0.00 | 0.00 | 0.00 | 53 | 1010.8 |
| 20260504203401 | 74 | 131 | 0.9 | 0.9 | 0.00 | 0.00 | 0.00 | 53 | 1010.8 |
| 20260504202857 | 76 | 217 | 5.2 | 6.1 | 0.00 | 0.00 | 0.00 | 50 | 1010.8 |
| 20260504202354 | 75 | 215 | 1.7 | 2.6 | 0.00 | 0.00 | 0.00 | 53 | 1010.8 |
| 20260504201850 | 74 | 199 | 1.7 | 2.6 | 0.00 | 0.00 | 0.00 | 53 | 1011.0 |
| 20260504201348 | 74 | 164 | 2.6 | 2.6 | 0.00 | 0.00 | 0.00 | 52 | 1010.9 |
| 20260504200845 | 75 | 216 | 3.5 | 7.0 | 0.00 | 0.00 | 0.00 | 53 | 1010.9 |
| 20260504200342 | 74 | 85 | 0.9 | 1.7 | 0.00 | 0.00 | 0.00 | 52 | 1011.0 |
| 20260504195838 | 74 | 182 | 4.3 | 6.1 | 0.00 | 0.00 | 0.00 | 52 | 1011.0 |
| 20260504195334 | 74 | 150 | 0.9 | 1.7 | 0.00 | 0.00 | 0.00 | 54 | 1011.0 |
| 20260504194831 | 74 | 237 | 2.6 | 3.5 | 0.00 | 0.00 | 0.00 | 53 | 1010.9 |
| 20260504194327 | 75 | 172 | 1.7 | 2.6 | 0.00 | 0.00 | 0.00 | 52 | 1010.8 |
| 20260504193823 | 75 | 276 | 3.5 | 5.2 | 0.00 | 0.00 | 0.00 | 53 | 1011.1 |
| 20260504193321 | 74 | 232 | 0.9 | 2.6 | 0.00 | 0.00 | 0.00 | 54 | 1010.9 |
| 20260504192819 | 74 | 65 | 1.7 | 2.6 | 0.00 | 0.00 | 0.00 | 55 | 1011.1 |
| 20260504192317 | 73 | 84 | 0.9 | 0.9 | 0.00 | 0.00 | 0.00 | 56 | 1011.0 |
| 20260504191815 | 74 | 203 | 3.5 | 5.2 | 0.00 | 0.00 | 0.00 | 54 | 1010.9 |
| 20260504191312 | 73 | 156 | 0.9 | 0.9 | 0.00 | 0.00 | 0.00 | 56 | 1011.1 |
| 20260504190808 | 73 | 236 | 4.3 | 6.1 | 0.00 | 0.00 | 0.00 | 54 | 1011.3 |
| 20260504190304 | 72 | 81 | 0.9 | 1.7 | 0.00 | 0.00 | 0.00 | 57 | 1011.3 |
| 20260504185800 | 73 | 208 | 5.2 | 6.1 | 0.00 | 0.00 | 0.00 | 54 | 1011.3 |
| 20260504185258 | 73 | 170 | 0.9 | 1.7 | 0.00 | 0.00 | 0.00 | 56 | 1011.2 |
| 20260504184754 | 72 | 133 | 1.7 | 1.7 | 0.00 | 0.00 | 0.00 | 57 | 1011.3 |
| 20260504184250 | 71 | 138 | 0.9 | 0.9 | 0.00 | 0.00 | 0.00 | 60 | 1011.5 |
| 20260504183746 | 71 | 87 | 2.6 | 3.5 | 0.00 | 0.00 | 0.00 | 59 | 1011.4 |
| 20260504183243 | 71 | 155 | 3.5 | 3.5 | 0.00 | 0.00 | 0.00 | 57 | 1011.6 |
| 20260504182741 | 71 | 350 | 1.7 | 1.7 | 0.00 | 0.00 | 0.00 | 60 | 1011.5 |
| 20260504182238 | 70 | 73 | 0.9 | 0.9 | 0.00 | 0.00 | 0.00 | 60 | 1011.6 |
| 20260504181735 | 70 | 89 | 0.9 | 0.9 | 0.00 | 0.00 | 0.00 | 58 | 1011.5 |
| 20260504181232 | 69 | 109 | 0.9 | 0.9 | 0.00 | 0.00 | 0.00 | 60 | 1011.5 |
| 20260504180731 | 69 | 135 | 0.9 | 1.7 | 0.00 | 0.00 | 0.00 | 61 | 1011.4 |
| 20260504180230 | 69 | 167 | 2.6 | 3.5 | 0.00 | 0.00 | 0.00 | 61 | 1011.5 |
| 20260504175727 | 68 | 338 | 1.7 | 1.7 | 0.00 | 0.00 | 0.00 | 62 | 1011.4 |
| 20260504175223 | 68 | 47 | 1.7 | 1.7 | 0.00 | 0.00 | 0.00 | 63 | 1011.3 |
| 20260504174722 | 68 | 222 | 2.6 | 2.6 | 0.00 | 0.00 | 0.00 | 61 | 1011.6 |
| 20260504174220 | 67 | 182 | 1.7 | 1.7 | 0.00 | 0.00 | 0.00 | 62 | 1011.5 |
| 20260504173715 | 66 | 148 | 1.7 | 2.6 | 0.00 | 0.00 | 0.00 | 63 | 1011.5 |
| 20260504173213 | 66 | 250 | 2.6 | 3.5 | 0.00 | 0.00 | 0.00 | 63 | 1011.4 |
| 20260504172709 | 66 | 140 | 2.6 | 2.6 | 0.00 | 0.00 | 0.00 | 63 | 1011.5 |
| 20260504172205 | 66 | 236 | 5.2 | 6.1 | 0.00 | 0.00 | 0.00 | 63 | 1011.5 |
| 20260504171702 | 66 | 75 | 3.5 | 5.2 | 0.00 | 0.00 | 0.00 | 64 | 1011.3 |
| 20260504171159 | 67 | 225 | 1.7 | 1.7 | 0.00 | 0.00 | 0.00 | 62 | 1011.3 |
| 20260504170655 | 66 | 195 | 1.7 | 3.5 | 0.00 | 0.00 | 0.00 | 63 | 1011.4 |
| 20260504170153 | 65 | 12 | 1.7 | 2.6 | 0.00 | 0.00 | 0.00 | 64 | 1011.4 |
| 20260504160112 | 64 | 220 | 2.6 | 3.5 | 0.00 | 0.00 | 0.00 | 64 | 1011.1 |
| 20260504151039 | 61 | 195 | 3.5 | 3.5 | 0.00 | 0.00 | 0.00 | 68 | 1010.9 |
| 20260504150537 | 61 | 215 | 3.5 | 5.2 | 0.00 | 0.00 | 0.00 | 68 | 1010.9 |
| 20260504141003 | 56 | 53 | 0.0 | 0.0 | 0.00 | 0.00 | 0.00 | 80 | 1010.6 |
| 20260504140459 | 55 | 53 | 0.0 | 0.0 | 0.00 | 0.00 | 0.00 | 81 | 1010.5 |